Time,TemperatureF,DewpointF,PressureIn,WindDirection,WindDirectionDegrees,WindSpeedMPH,WindSpeedGustMPH,Humidity,HourlyPrecipIn,Conditions,Clouds,dailyrainin,SoftwareType,DateUTC
2013-04-30 00:01:00,52.7,51.6,30.17,ENE,71,2.0,4.0,96,0.00,,,0.53,meteohub,2013-04-30 04:01:00,
2013-04-30 00:06:00,52.7,51.6,30.16,East,88,1.0,3.0,96,0.00,,,0.00,meteohub,2013-04-30 04:06:00,
2013-04-30 00:11:00,52.7,51.6,30.17,East,81,1.0,3.0,96,0.00,,,0.00,meteohub,2013-04-30 04:11:00,
2013-04-30 00:16:00,52.7,51.6,30.17,ENE,65,0.0,2.0,96,0.00,,,0.00,meteohub,2013-04-30 04:16:00,
2013-04-30 00:21:00,52.9,51.8,30.17,ENE,65,1.0,2.0,96,0.00,,,0.00,meteohub,2013-04-30 04:21:00,
2013-04-30 00:26:00,52.9,51.8,30.17,ENE,72,1.0,3.0,96,0.00,,,0.00,meteohub,2013-04-30 04:26:00,
2013-04-30 00:31:00,52.9,51.8,30.17,ENE,72,1.0,3.0,96,0.00,,,0.00,meteohub,2013-04-30 04:31:00,
2013-04-30 00:36:00,52.9,51.8,30.17,ENE,57,1.0,3.0,96,0.00,,,0.00,meteohub,2013-04-30 04:36:00,
2013-04-30 00:41:00,52.9,51.8,30.17,ENE,57,1.0,2.0,96,0.00,,,0.00,meteohub,2013-04-30 04:41:00,
2013-04-30 00:46:00,52.9,51.8,30.17,ENE,76,1.0,3.0,96,0.00,,,0.00,meteohub,2013-04-30 04:46:00,
2013-04-30 00:52:00,52.9,51.8,30.17,ENE,67,1.0,3.0,96,0.00,,,0.00,meteohub,2013-04-30 04:52:00,
2013-04-30 00:56:00,52.9,51.8,30.17,East,81,2.0,3.0,96,0.00,,,0.00,meteohub,2013-04-30 04:56:00,
2013-04-30 01:02:00,52.9,51.8,30.17,SE,139,0.0,3.0,96,0.00,,,0.00,meteohub,2013-04-30 05:02:00,
2013-04-30 01:07:00,52.9,51.8,30.16,ENE,59,2.0,3.0,96,0.00,,,0.00,meteohub,2013-04-30 05:07:00,
2013-04-30 01:12:00,52.9,51.8,30.16,NE,55,0.0,3.0,96,0.00,,,0.00,meteohub,2013-04-30 05:12:00,
2013-04-30 01:17:00,52.9,51.8,30.16,NE,56,2.0,3.0,96,0.00,,,0.00,meteohub,2013-04-30 05:17:00,
2013-04-30 01:22:00,52.9,51.8,30.16,ENE,69,0.0,3.0,96,0.00,,,0.00,meteohub,2013-04-30 05:22:00,
2013-04-30 01:27:00,52.9,51.8,30.16,ENE,67,4.0,4.0,96,0.00,,,0.00,meteohub,2013-04-30 05:27:00,
2013-04-30 01:32:00,52.9,51.8,30.16,NE,53,3.0,4.0,96,0.00,,,0.00,meteohub,2013-04-30 05:32:00,
2013-04-30 01:37:00,52.7,51.6,30.16,East,89,0.0,4.0,96,0.00,,,0.00,meteohub,2013-04-30 05:37:00,
2013-04-30 01:42:00,52.7,51.6,30.16,East,82,1.0,4.0,96,0.00,,,0.00,meteohub,2013-04-30 05:42:00,
2013-04-30 01:47:00,52.7,51.6,30.16,ENE,63,2.0,4.0,96,0.00,,,0.00,meteohub,2013-04-30 05:47:00,
2013-04-30 01:52:00,52.9,51.8,30.16,NE,41,3.0,4.0,96,0.00,,,0.00,meteohub,2013-04-30 05:52:00,
2013-04-30 01:57:00,52.9,51.8,30.16,ENE,66,5.0,7.0,96,0.00,,,0.00,meteohub,2013-04-30 05:57:00,
2013-04-30 02:02:00,52.9,51.8,30.16,ENE,60,4.0,7.0,96,0.00,,,0.00,meteohub,2013-04-30 06:02:00,
2013-04-30 02:07:00,52.9,51.8,30.16,ENE,59,1.0,7.0,96,0.00,,,0.00,meteohub,2013-04-30 06:07:00,
2013-04-30 02:12:00,52.7,51.6,30.16,ENE,58,4.0,5.0,96,0.00,,,0.00,meteohub,2013-04-30 06:12:00,
2013-04-30 02:17:00,52.7,51.6,30.16,ENE,62,3.0,5.0,96,0.00,,,0.00,meteohub,2013-04-30 06:17:00,
2013-04-30 02:22:00,52.7,51.6,30.16,NE,46,2.0,5.0,96,0.00,,,0.00,meteohub,2013-04-30 06:22:00,
2013-04-30 02:27:00,52.5,51.4,30.16,ENE,57,2.0,5.0,96,0.00,,,0.00,meteohub,2013-04-30 06:27:00,
2013-04-30 02:32:00,52.5,51.4,30.16,ENE,64,2.0,4.0,96,0.00,,,0.00,meteohub,2013-04-30 06:32:00,
2013-04-30 02:37:00,52.5,51.6,30.16,ENE,67,1.0,4.0,97,0.00,,,0.00,meteohub,2013-04-30 06:37:00,
2013-04-30 02:42:00,52.5,51.6,30.16,ENE,67,1.0,4.0,97,0.00,,,0.00,meteohub,2013-04-30 06:42:00,
2013-04-30 02:47:00,52.5,51.6,30.16,ENE,65,1.0,4.0,97,0.00,,,0.00,meteohub,2013-04-30 06:47:00,
2013-04-30 02:52:00,52.5,51.6,30.16,ENE,69,3.0,3.0,97,0.01,,,0.01,meteohub,2013-04-30 06:52:00,
2013-04-30 02:57:00,52.5,51.6,30.16,NE,51,2.0,4.0,97,0.01,,,0.01,meteohub,2013-04-30 06:57:00,
2013-04-30 03:02:00,52.5,51.6,30.16,ENE,59,2.0,4.0,97,0.01,,,0.01,meteohub,2013-04-30 07:02:00,
2013-04-30 03:07:00,52.5,51.6,30.16,ENE,60,4.0,4.0,97,0.01,,,0.01,meteohub,2013-04-30 07:07:00,
2013-04-30 03:12:00,52.5,51.6,30.16,NE,44,4.0,5.0,97,0.01,,,0.01,meteohub,2013-04-30 07:12:00,
2013-04-30 03:17:00,52.5,51.6,30.16,East,80,5.0,7.0,97,0.01,,,0.01,meteohub,2013-04-30 07:17:00,
2013-04-30 03:22:00,52.5,51.6,30.16,ENE,73,5.0,8.0,97,0.01,,,0.01,meteohub,2013-04-30 07:22:00,
2013-04-30 03:27:00,52.5,51.6,30.16,NE,51,3.0,8.0,97,0.01,,,0.01,meteohub,2013-04-30 07:27:00,
2013-04-30 03:32:00,52.5,51.6,30.16,East,79,5.0,8.0,97,0.01,,,0.01,meteohub,2013-04-30 07:32:00,
2013-04-30 03:37:00,52.5,51.6,30.16,ENE,57,3.0,8.0,97,0.01,,,0.01,meteohub,2013-04-30 07:37:00,
2013-04-30 03:42:00,52.5,51.6,30.16,ENE,69,4.0,8.0,97,0.01,,,0.01,meteohub,2013-04-30 07:42:00,
2013-04-30 03:47:00,52.5,51.6,30.16,ENE,67,2.0,8.0,97,0.01,,,0.01,meteohub,2013-04-30 07:47:00,
2013-04-30 03:52:00,52.5,51.6,30.16,ENE,63,4.0,7.0,97,0.00,,,0.01,meteohub,2013-04-30 07:52:00,
2013-04-30 03:57:00,52.5,51.6,30.16,ENE,62,3.0,8.0,97,0.00,,,0.01,meteohub,2013-04-30 07:57:00,
2013-04-30 04:02:00,52.5,51.6,30.16,ENE,66,2.0,8.0,97,0.00,,,0.01,meteohub,2013-04-30 08:02:00,
2013-04-30 04:07:00,52.5,51.6,30.16,NE,53,4.0,8.0,97,0.00,,,0.01,meteohub,2013-04-30 08:07:00,
2013-04-30 04:12:00,52.3,51.4,30.16,ENE,58,5.0,8.0,97,0.00,,,0.01,meteohub,2013-04-30 08:12:00,
2013-04-30 04:17:00,52.3,51.4,30.17,ENE,59,4.0,7.0,97,0.00,,,0.01,meteohub,2013-04-30 08:17:00,
2013-04-30 04:22:00,52.3,51.4,30.17,ENE,74,1.0,8.0,97,0.00,,,0.01,meteohub,2013-04-30 08:22:00,
2013-04-30 04:27:00,52.3,51.4,30.17,ENE,61,2.0,8.0,97,0.00,,,0.01,meteohub,2013-04-30 08:27:00,
2013-04-30 04:32:00,52.3,51.4,30.17,NE,53,5.0,8.0,97,0.00,,,0.01,meteohub,2013-04-30 08:32:00,
2013-04-30 04:37:00,52.2,51.3,30.17,East,94,2.0,8.0,97,0.00,,,0.01,meteohub,2013-04-30 08:37:00,
2013-04-30 04:42:00,52.2,51.3,30.17,ENE,71,3.0,10.0,97,0.00,,,0.01,meteohub,2013-04-30 08:42:00,
2013-04-30 04:47:00,52.2,51.3,30.17,NE,51,6.0,10.0,97,0.00,,,0.01,meteohub,2013-04-30 08:47:00,
2013-04-30 04:52:00,52.0,51.1,30.17,ENE,65,7.0,10.0,97,0.00,,,0.01,meteohub,2013-04-30 08:52:00,
2013-04-30 04:57:00,52.0,51.1,30.17,ENE,64,3.0,10.0,97,0.00,,,0.01,meteohub,2013-04-30 08:57:00,
2013-04-30 05:02:00,52.0,51.1,30.17,ENE,67,1.0,8.0,97,0.00,,,0.01,meteohub,2013-04-30 09:02:00,
2013-04-30 05:07:00,51.8,50.9,30.17,East,79,3.0,8.0,97,0.00,,,0.01,meteohub,2013-04-30 09:07:00,
2013-04-30 05:12:00,51.6,50.5,30.17,NE,40,2.0,8.0,96,0.00,,,0.01,meteohub,2013-04-30 09:12:00,
2013-04-30 05:17:00,51.6,50.5,30.18,ENE,57,3.0,6.0,96,0.00,,,0.01,meteohub,2013-04-30 09:17:00,
2013-04-30 05:22:00,51.6,50.5,30.18,ENE,60,2.0,7.0,96,0.00,,,0.01,meteohub,2013-04-30 09:22:00,
2013-04-30 05:27:00,51.6,50.5,30.18,NE,55,6.0,7.0,96,0.00,,,0.01,meteohub,2013-04-30 09:27:00,
2013-04-30 05:32:00,51.6,50.5,30.18,ENE,77,1.0,7.0,96,0.00,,,0.01,meteohub,2013-04-30 09:32:00,
2013-04-30 05:37:00,51.6,50.5,30.18,ENE,65,8.0,8.0,96,0.00,,,0.01,meteohub,2013-04-30 09:37:00,
2013-04-30 05:42:00,51.4,50.4,30.18,East,91,2.0,9.0,96,0.00,,,0.01,meteohub,2013-04-30 09:42:00,
2013-04-30 05:47:00,51.4,50.4,30.19,East,79,3.0,9.0,96,0.00,,,0.01,meteohub,2013-04-30 09:47:00,
2013-04-30 05:52:00,51.3,50.2,30.19,NE,44,3.0,9.0,96,0.00,,,0.01,meteohub,2013-04-30 09:52:00,
2013-04-30 05:57:00,51.3,50.2,30.19,ENE,71,3.0,8.0,96,0.00,,,0.01,meteohub,2013-04-30 09:57:00,
2013-04-30 06:02:00,51.1,50.0,30.19,ENE,69,2.0,7.0,96,0.00,,,0.01,meteohub,2013-04-30 10:02:00,
2013-04-30 06:07:00,51.1,50.0,30.20,NE,45,3.0,7.0,96,0.00,,,0.01,meteohub,2013-04-30 10:07:00,
2013-04-30 06:12:00,51.1,50.0,30.20,East,80,0.0,7.0,96,0.00,,,0.01,meteohub,2013-04-30 10:12:00,
2013-04-30 06:17:00,50.9,49.8,30.20,ENE,61,5.0,5.0,96,0.00,,,0.01,meteohub,2013-04-30 10:17:00,
2013-04-30 06:22:00,50.7,49.6,30.20,ENE,78,2.0,5.0,96,0.00,,,0.01,meteohub,2013-04-30 10:22:00,
2013-04-30 06:27:00,50.7,49.6,30.20,ENE,74,1.0,7.0,96,0.00,,,0.01,meteohub,2013-04-30 10:27:00,
2013-04-30 06:32:00,50.7,49.6,30.21,ENE,67,1.0,7.0,96,0.00,,,0.01,meteohub,2013-04-30 10:32:00,
2013-04-30 06:37:00,50.7,49.6,30.21,East,88,5.0,7.0,96,0.00,,,0.01,meteohub,2013-04-30 10:37:00,
2013-04-30 06:42:00,50.7,49.6,30.21,ENE,78,2.0,5.0,96,0.00,,,0.01,meteohub,2013-04-30 10:42:00,
2013-04-30 06:47:00,50.7,49.6,30.21,NE,51,4.0,5.0,96,0.00,,,0.01,meteohub,2013-04-30 10:47:00,
2013-04-30 06:52:00,50.7,49.6,30.21,ENE,67,3.0,5.0,96,0.00,,,0.01,meteohub,2013-04-30 10:52:00,
2013-04-30 06:57:00,50.7,49.6,30.22,NE,47,4.0,5.0,96,0.00,,,0.01,meteohub,2013-04-30 10:57:00,
2013-04-30 07:02:00,50.7,49.6,30.22,ENE,73,3.0,5.0,96,0.00,,,0.01,meteohub,2013-04-30 11:02:00,
2013-04-30 07:07:00,50.7,49.6,30.22,ENE,67,3.0,6.0,96,0.00,,,0.01,meteohub,2013-04-30 11:07:00,
2013-04-30 07:12:00,50.7,49.6,30.22,ENE,57,5.0,6.0,96,0.00,,,0.01,meteohub,2013-04-30 11:12:00,
2013-04-30 07:17:00,50.7,49.3,30.22,ENE,59,2.0,7.0,95,0.00,,,0.01,meteohub,2013-04-30 11:17:00,
2013-04-30 07:22:00,50.5,49.1,30.23,NE,53,4.0,7.0,95,0.00,,,0.01,meteohub,2013-04-30 11:22:00,
2013-04-30 07:27:00,50.5,49.1,30.23,ENE,67,2.0,7.0,95,0.00,,,0.01,meteohub,2013-04-30 11:27:00,
2013-04-30 07:32:00,50.5,49.1,30.23,ENE,62,2.0,7.0,95,0.00,,,0.01,meteohub,2013-04-30 11:32:00,
2013-04-30 07:37:00,50.5,49.1,30.23,ENE,62,2.0,5.0,95,0.00,,,0.01,meteohub,2013-04-30 11:37:00,
2013-04-30 07:42:00,50.7,49.3,30.23,NE,50,3.0,5.0,95,0.00,,,0.01,meteohub,2013-04-30 11:42:00,
2013-04-30 07:47:00,50.7,49.3,30.23,ENE,69,2.0,5.0,95,0.00,,,0.01,meteohub,2013-04-30 11:47:00,
2013-04-30 07:52:00,50.7,49.3,30.24,ENE,61,3.0,7.0,95,0.00,,,0.01,meteohub,2013-04-30 11:52:00,
2013-04-30 07:57:00,50.7,49.3,30.24,ENE,62,4.0,7.0,95,0.00,,,0.01,meteohub,2013-04-30 11:57:00,
2013-04-30 08:02:00,50.9,49.5,30.24,NE,49,2.0,7.0,95,0.00,,,0.01,meteohub,2013-04-30 12:02:00,
2013-04-30 08:07:00,50.9,49.3,30.25,NE,45,3.0,7.0,94,0.00,,,0.01,meteohub,2013-04-30 12:07:00,
2013-04-30 08:12:00,51.1,49.5,30.25,East,96,2.0,7.0,94,0.00,,,0.01,meteohub,2013-04-30 12:12:00,
2013-04-30 08:17:00,51.3,49.6,30.25,East,91,1.0,7.0,94,0.00,,,0.01,meteohub,2013-04-30 12:17:00,
2013-04-30 08:22:00,51.4,49.8,30.24,NE,51,3.0,7.0,94,0.00,,,0.01,meteohub,2013-04-30 12:22:00,
2013-04-30 08:27:00,51.6,50.0,30.25,NE,56,4.0,7.0,94,0.00,,,0.01,meteohub,2013-04-30 12:27:00,
2013-04-30 08:32:00,51.6,49.6,30.25,NE,51,4.0,7.0,93,0.00,,,0.01,meteohub,2013-04-30 12:32:00,
2013-04-30 08:37:00,51.8,49.8,30.25,East,97,2.0,7.0,93,0.00,,,0.01,meteohub,2013-04-30 12:37:00,
2013-04-30 08:42:00,52.0,50.0,30.25,NE,36,4.0,8.0,93,0.00,,,0.01,meteohub,2013-04-30 12:42:00,
2013-04-30 08:47:00,52.2,50.2,30.25,NE,41,5.0,8.0,93,0.00,,,0.01,meteohub,2013-04-30 12:47:00,
2013-04-30 08:52:00,52.3,50.4,30.25,ENE,59,5.0,8.0,93,0.00,,,0.01,meteohub,2013-04-30 12:52:00,
2013-04-30 08:57:00,52.7,50.4,30.25,ENE,67,3.0,7.0,92,0.00,,,0.01,meteohub,2013-04-30 12:57:00,
2013-04-30 09:02:00,53.6,51.6,30.25,NE,51,3.0,7.0,93,0.00,,,0.01,meteohub,2013-04-30 13:02:00,
2013-04-30 09:07:00,54.3,51.4,30.25,ENE,63,4.0,7.0,90,0.00,,,0.01,meteohub,2013-04-30 13:07:00,
2013-04-30 09:12:00,54.9,51.6,30.25,East,93,1.0,8.0,89,0.00,,,0.01,meteohub,2013-04-30 13:12:00,
2013-04-30 09:17:00,55.2,51.8,30.25,East,87,2.0,8.0,88,0.00,,,0.01,meteohub,2013-04-30 13:17:00,
2013-04-30 09:22:00,55.8,51.6,30.25,East,94,2.0,8.0,86,0.00,,,0.01,meteohub,2013-04-30 13:22:00,
2013-04-30 09:27:00,55.9,51.8,30.25,ESE,121,2.0,6.0,86,0.00,,,0.01,meteohub,2013-04-30 13:27:00,
2013-04-30 09:32:00,55.8,51.3,30.25,ENE,58,4.0,8.0,85,0.00,,,0.01,meteohub,2013-04-30 13:32:00,
2013-04-30 09:37:00,56.1,51.1,30.24,NE,37,4.0,9.0,83,0.00,,,0.01,meteohub,2013-04-30 13:37:00,
2013-04-30 09:42:00,57.2,52.3,30.25,ENE,74,5.0,9.0,84,0.00,,,0.01,meteohub,2013-04-30 13:42:00,
2013-04-30 09:47:00,57.6,51.4,30.24,NE,50,8.0,9.0,80,0.00,,,0.01,meteohub,2013-04-30 13:47:00,
2013-04-30 09:52:00,57.6,51.1,30.24,NE,55,6.0,9.0,79,0.00,,,0.01,meteohub,2013-04-30 13:52:00,
2013-04-30 09:57:00,57.9,51.4,30.24,ENE,71,7.0,9.0,79,0.00,,,0.01,meteohub,2013-04-30 13:57:00,
2013-04-30 10:02:00,57.9,50.4,30.24,ENE,64,4.0,9.0,76,0.00,,,0.01,meteohub,2013-04-30 14:02:00,
2013-04-30 10:07:00,58.6,51.4,30.24,East,98,2.0,8.0,77,0.00,,,0.01,meteohub,2013-04-30 14:07:00,
2013-04-30 10:12:00,58.8,51.3,30.25,ENE,73,3.0,8.0,76,0.00,,,0.01,meteohub,2013-04-30 14:12:00,
2013-04-30 10:17:00,58.8,51.3,30.24,ENE,57,2.0,7.0,76,0.00,,,0.01,meteohub,2013-04-30 14:17:00,
2013-04-30 10:22:00,58.6,50.7,30.25,ENE,63,7.0,9.0,75,0.00,,,0.01,meteohub,2013-04-30 14:22:00,
2013-04-30 10:27:00,58.8,50.9,30.25,NE,55,6.0,10.0,75,0.00,,,0.01,meteohub,2013-04-30 14:27:00,
2013-04-30 10:32:00,60.1,51.4,30.24,NE,51,3.0,10.0,73,0.00,,,0.01,meteohub,2013-04-30 14:32:00,
2013-04-30 10:37:00,60.6,51.1,30.24,ESE,117,2.0,10.0,71,0.00,,,0.01,meteohub,2013-04-30 14:37:00,
2013-04-30 10:42:00,60.1,51.1,30.25,ESE,104,2.0,9.0,72,0.00,,,0.01,meteohub,2013-04-30 14:42:00,
2013-04-30 10:47:00,61.3,51.4,30.25,ENE,65,3.0,9.0,70,0.00,,,0.01,meteohub,2013-04-30 14:47:00,
2013-04-30 10:52:00,61.9,51.3,30.25,NE,54,5.0,9.0,68,0.00,,,0.01,meteohub,2013-04-30 14:52:00,
2013-04-30 10:57:00,60.8,50.9,30.25,SE,136,2.0,9.0,70,0.00,,,0.01,meteohub,2013-04-30 14:57:00,
2013-04-30 11:02:00,60.4,50.5,30.25,ENE,69,5.0,9.0,70,0.00,,,0.01,meteohub,2013-04-30 15:02:00,
2013-04-30 11:07:00,61.5,50.0,30.25,NE,54,7.0,9.0,66,0.00,,,0.01,meteohub,2013-04-30 15:07:00,
2013-04-30 11:12:00,61.7,50.7,30.25,NE,48,5.0,9.0,67,0.00,,,0.01,meteohub,2013-04-30 15:12:00,
2013-04-30 11:17:00,62.2,50.4,30.25,ENE,67,7.0,9.0,65,0.00,,,0.01,meteohub,2013-04-30 15:17:00,
2013-04-30 11:22:00,61.9,50.4,30.25,ENE,66,1.0,9.0,66,0.00,,,0.01,meteohub,2013-04-30 15:22:00,
2013-04-30 11:27:00,61.3,49.8,30.25,ENE,66,3.0,8.0,66,0.00,,,0.01,meteohub,2013-04-30 15:27:00,
2013-04-30 11:32:00,61.2,50.2,30.25,ESE,117,3.0,8.0,67,0.00,,,0.01,meteohub,2013-04-30 15:32:00,
2013-04-30 11:37:00,60.8,49.8,30.25,NNW,330,2.0,7.0,67,0.00,,,0.01,meteohub,2013-04-30 15:37:00,
2013-04-30 11:42:00,62.1,51.4,30.25,NE,55,3.0,8.0,68,0.00,,,0.01,meteohub,2013-04-30 15:42:00,
2013-04-30 11:47:00,63.1,50.7,30.24,NE,56,7.0,8.0,64,0.00,,,0.01,meteohub,2013-04-30 15:47:00,
2013-04-30 11:52:00,63.7,50.9,30.25,SE,142,1.0,10.0,63,0.00,,,0.01,meteohub,2013-04-30 15:52:00,
2013-04-30 11:57:00,63.3,49.6,30.25,ENE,71,3.0,10.0,61,0.00,,,0.01,meteohub,2013-04-30 15:57:00,
2013-04-30 12:02:00,62.6,50.7,30.25,SE,132,3.0,10.0,65,0.00,,,0.01,meteohub,2013-04-30 16:02:00,
2013-04-30 12:07:00,62.2,49.1,30.24,ENE,68,3.0,9.0,62,0.00,,,0.01,meteohub,2013-04-30 16:07:00,
2013-04-30 12:12:00,63.1,49.8,30.24,ENE,75,3.0,9.0,62,0.00,,,0.01,meteohub,2013-04-30 16:12:00,
2013-04-30 12:17:00,64.0,50.4,30.24,NE,51,5.0,8.0,61,0.00,,,0.01,meteohub,2013-04-30 16:17:00,
2013-04-30 12:22:00,64.8,50.2,30.24,ENE,57,4.0,9.0,59,0.00,,,0.01,meteohub,2013-04-30 16:22:00,
2013-04-30 12:27:00,65.1,49.5,30.24,ENE,69,3.0,10.0,57,0.00,,,0.01,meteohub,2013-04-30 16:27:00,
2013-04-30 12:32:00,64.6,49.5,30.24,ESE,116,3.0,10.0,58,0.00,,,0.01,meteohub,2013-04-30 16:32:00,
2013-04-30 12:37:00,64.8,48.7,30.24,East,84,3.0,10.0,56,0.00,,,0.01,meteohub,2013-04-30 16:37:00,
2013-04-30 12:42:00,64.9,47.8,30.25,ESE,117,4.0,8.0,54,0.00,,,0.01,meteohub,2013-04-30 16:42:00,
2013-04-30 12:47:00,63.3,47.8,30.25,ENE,67,4.0,8.0,57,0.00,,,0.01,meteohub,2013-04-30 16:47:00,
2013-04-30 12:52:00,63.0,48.4,30.25,SE,124,2.0,8.0,59,0.00,,,0.01,meteohub,2013-04-30 16:52:00,
2013-04-30 12:57:00,63.0,48.9,30.25,ENE,61,1.0,7.0,60,0.00,,,0.01,meteohub,2013-04-30 16:57:00,
2013-04-30 13:02:00,63.9,47.8,30.24,NE,53,2.0,8.0,56,0.00,,,0.01,meteohub,2013-04-30 17:02:00,
2013-04-30 13:07:00,64.2,49.6,30.24,NE,51,5.0,8.0,59,0.00,,,0.01,meteohub,2013-04-30 17:07:00,
2013-04-30 13:12:00,64.6,48.6,30.24,ESE,118,1.0,12.0,56,0.00,,,0.01,meteohub,2013-04-30 17:12:00,
2013-04-30 13:17:00,64.8,49.1,30.24,East,98,1.0,12.0,57,0.00,,,0.01,meteohub,2013-04-30 17:17:00,
2013-04-30 13:22:00,64.6,47.5,30.24,NE,51,5.0,12.0,54,0.00,,,0.01,meteohub,2013-04-30 17:22:00,
2013-04-30 13:27:00,63.9,47.3,30.23,ESE,123,1.0,11.0,55,0.00,,,0.01,meteohub,2013-04-30 17:27:00,
2013-04-30 13:32:00,63.9,47.8,30.23,East,91,2.0,11.0,56,0.00,,,0.01,meteohub,2013-04-30 17:32:00,
2013-04-30 13:37:00,63.9,48.4,30.23,ENE,71,2.0,10.0,57,0.00,,,0.01,meteohub,2013-04-30 17:37:00,
2013-04-30 13:42:00,64.0,46.6,30.23,East,83,1.0,7.0,53,0.00,,,0.01,meteohub,2013-04-30 17:42:00,
2013-04-30 13:47:00,64.2,47.3,30.23,NE,38,3.0,8.0,54,0.00,,,0.01,meteohub,2013-04-30 17:47:00,
2013-04-30 13:52:00,65.1,47.5,30.23,ESE,123,3.0,9.0,53,0.00,,,0.01,meteohub,2013-04-30 17:52:00,
2013-04-30 13:57:00,65.1,47.5,30.23,NE,34,5.0,11.0,53,0.00,,,0.01,meteohub,2013-04-30 17:57:00,
2013-04-30 14:02:00,65.3,47.3,30.23,NE,53,2.0,11.0,52,0.00,,,0.01,meteohub,2013-04-30 18:02:00,
2013-04-30 14:07:00,65.1,47.1,30.23,ENE,57,3.0,11.0,52,0.00,,,0.01,meteohub,2013-04-30 18:07:00,
2013-04-30 14:12:00,65.3,47.3,30.23,ENE,66,3.0,11.0,52,0.00,,,0.01,meteohub,2013-04-30 18:12:00,
2013-04-30 14:17:00,66.4,47.7,30.23,NE,36,3.0,11.0,51,0.00,,,0.01,meteohub,2013-04-30 18:17:00,
2013-04-30 14:22:00,66.7,48.0,30.23,ENE,63,0.0,11.0,51,0.00,,,0.01,meteohub,2013-04-30 18:22:00,
2013-04-30 14:27:00,66.4,47.1,30.23,SSE,153,5.0,11.0,50,0.00,,,0.01,meteohub,2013-04-30 18:27:00,
2013-04-30 14:32:00,66.4,48.2,30.23,SSE,158,3.0,11.0,52,0.00,,,0.01,meteohub,2013-04-30 18:32:00,
2013-04-30 14:37:00,66.7,47.5,30.23,NE,49,3.0,8.0,50,0.00,,,0.01,meteohub,2013-04-30 18:37:00,
2013-04-30 14:42:00,66.6,48.4,30.23,NE,39,2.0,8.0,52,0.00,,,0.01,meteohub,2013-04-30 18:42:00,
2013-04-30 14:47:00,67.3,48.6,30.23,East,95,2.0,7.0,51,0.00,,,0.01,meteohub,2013-04-30 18:47:00,
2013-04-30 14:52:00,66.9,45.5,30.23,NE,55,6.0,9.0,46,0.00,,,0.01,meteohub,2013-04-30 18:52:00,
2013-04-30 14:57:00,67.1,46.8,30.23,NE,55,5.0,9.0,48,0.00,,,0.01,meteohub,2013-04-30 18:57:00,
2013-04-30 15:02:00,67.1,46.8,30.23,East,86,1.0,11.0,48,0.00,,,0.01,meteohub,2013-04-30 19:02:00,
2013-04-30 15:07:00,67.3,47.5,30.23,East,79,2.0,11.0,49,0.00,,,0.01,meteohub,2013-04-30 19:07:00,
2013-04-30 15:12:00,67.1,46.2,30.23,East,100,1.0,11.0,47,0.00,,,0.01,meteohub,2013-04-30 19:12:00,
2013-04-30 15:17:00,66.7,46.9,30.23,ESE,106,1.0,8.0,49,0.00,,,0.01,meteohub,2013-04-30 19:17:00,
2013-04-30 15:22:00,67.8,46.9,30.23,SE,130,1.0,9.0,47,0.00,,,0.01,meteohub,2013-04-30 19:22:00,
2013-04-30 15:27:00,67.6,46.0,30.23,SE,135,2.0,9.0,46,0.00,,,0.01,meteohub,2013-04-30 19:27:00,
2013-04-30 15:32:00,66.9,46.6,30.23,SSE,158,2.0,10.0,48,0.00,,,0.01,meteohub,2013-04-30 19:32:00,
2013-04-30 15:37:00,66.9,47.1,30.23,South,182,6.0,10.0,49,0.00,,,0.01,meteohub,2013-04-30 19:37:00,
2013-04-30 15:42:00,67.3,46.9,30.23,East,99,2.0,10.0,48,0.00,,,0.01,meteohub,2013-04-30 19:42:00,
2013-04-30 15:47:00,67.3,46.9,30.23,ESE,105,2.0,7.0,48,0.00,,,0.01,meteohub,2013-04-30 19:47:00,
2013-04-30 15:52:00,67.3,46.9,30.23,ESE,118,1.0,7.0,48,0.00,,,0.01,meteohub,2013-04-30 19:52:00,
2013-04-30 15:57:00,67.1,47.3,30.24,ESE,115,1.0,6.0,49,0.00,,,0.01,meteohub,2013-04-30 19:57:00,
2013-04-30 16:02:00,66.7,45.9,30.24,SSE,165,3.0,6.0,47,0.00,,,0.01,meteohub,2013-04-30 20:02:00,
2013-04-30 16:07:00,66.7,46.9,30.24,ENE,73,1.0,6.0,49,0.00,,,0.01,meteohub,2013-04-30 20:07:00,
2013-04-30 16:12:00,66.9,47.1,30.24,ESE,105,2.0,5.0,49,0.00,,,0.01,meteohub,2013-04-30 20:12:00,
2013-04-30 16:17:00,67.1,45.7,30.24,East,88,2.0,5.0,46,0.00,,,0.01,meteohub,2013-04-30 20:17:00,
2013-04-30 16:22:00,66.9,46.6,30.24,ENE,57,3.0,7.0,48,0.00,,,0.01,meteohub,2013-04-30 20:22:00,
2013-04-30 16:27:00,66.9,45.5,30.24,East,98,0.0,7.0,46,0.00,,,0.01,meteohub,2013-04-30 20:27:00,
2013-04-30 16:32:00,66.7,45.9,30.25,ESE,119,2.0,7.0,47,0.00,,,0.01,meteohub,2013-04-30 20:32:00,
2013-04-30 16:37:00,66.7,45.9,30.25,NE,49,2.0,7.0,47,0.00,,,0.01,meteohub,2013-04-30 20:37:00,
2013-04-30 16:42:00,66.9,46.0,30.25,East,101,1.0,7.0,47,0.00,,,0.01,meteohub,2013-04-30 20:42:00,
2013-04-30 16:47:00,66.7,44.1,30.24,SSE,163,3.0,7.0,44,0.00,,,0.01,meteohub,2013-04-30 20:47:00,
2013-04-30 16:52:00,66.4,44.4,30.25,SE,127,2.0,7.0,45,0.00,,,0.01,meteohub,2013-04-30 20:52:00,
2013-04-30 16:57:00,66.0,45.7,30.25,ENE,67,1.0,8.0,48,0.00,,,0.01,meteohub,2013-04-30 20:57:00,
2013-04-30 17:02:00,66.0,45.1,30.25,SSE,153,4.0,8.0,47,0.00,,,0.01,meteohub,2013-04-30 21:02:00,
2013-04-30 17:07:00,66.0,44.6,30.25,ENE,59,3.0,8.0,46,0.00,,,0.01,meteohub,2013-04-30 21:07:00,
2013-04-30 17:12:00,66.2,44.8,30.25,NNW,331,3.0,7.0,46,0.00,,,0.01,meteohub,2013-04-30 21:12:00,
2013-04-30 17:17:00,66.4,46.0,30.25,East,95,1.0,7.0,48,0.00,,,0.01,meteohub,2013-04-30 21:17:00,
2013-04-30 17:22:00,66.4,44.4,30.25,NE,42,3.0,7.0,45,0.00,,,0.01,meteohub,2013-04-30 21:22:00,
2013-04-30 17:27:00,66.2,44.8,30.25,ENE,76,2.0,7.0,46,0.00,,,0.01,meteohub,2013-04-30 21:27:00,
2013-04-30 17:32:00,66.0,44.1,30.25,ENE,70,2.0,5.0,45,0.00,,,0.01,meteohub,2013-04-30 21:32:00,
2013-04-30 17:37:00,65.8,46.2,30.25,SE,136,2.0,5.0,49,0.00,,,0.01,meteohub,2013-04-30 21:37:00,
2013-04-30 17:42:00,65.7,46.6,30.25,ESE,121,1.0,5.0,50,0.00,,,0.01,meteohub,2013-04-30 21:42:00,
2013-04-30 17:47:00,65.5,44.2,30.25,ENE,69,3.0,4.0,46,0.00,,,0.01,meteohub,2013-04-30 21:47:00,
2013-04-30 17:52:00,65.5,44.8,30.25,ENE,62,3.0,4.0,47,0.00,,,0.01,meteohub,2013-04-30 21:52:00,
2013-04-30 17:57:00,65.5,44.8,30.25,East,79,2.0,6.0,47,0.00,,,0.01,meteohub,2013-04-30 21:57:00,
2013-04-30 18:02:00,65.1,43.9,30.25,SSE,147,5.0,6.0,46,0.00,,,0.01,meteohub,2013-04-30 22:02:00,
2013-04-30 18:07:00,64.9,44.2,30.25,ENE,78,2.0,6.0,47,0.00,,,0.01,meteohub,2013-04-30 22:07:00,
2013-04-30 18:12:00,64.8,44.6,30.25,ESE,107,1.0,7.0,48,0.00,,,0.01,meteohub,2013-04-30 22:12:00,
2013-04-30 18:17:00,64.6,44.4,30.25,ESE,117,3.0,7.0,48,0.00,,,0.01,meteohub,2013-04-30 22:17:00,
2013-04-30 18:22:00,64.2,44.1,30.25,ENE,57,2.0,7.0,48,0.00,,,0.01,meteohub,2013-04-30 22:22:00,
2013-04-30 18:27:00,64.2,43.0,30.25,ESE,119,2.0,4.0,46,0.00,,,0.01,meteohub,2013-04-30 22:27:00,
2013-04-30 18:32:00,64.0,43.3,30.26,East,95,2.0,4.0,47,0.00,,,0.01,meteohub,2013-04-30 22:32:00,
2013-04-30 18:37:00,63.9,42.1,30.26,SW,236,1.0,4.0,45,0.00,,,0.01,meteohub,2013-04-30 22:37:00,
2013-04-30 18:42:00,63.7,42.4,30.26,NE,44,2.0,4.0,46,0.00,,,0.01,meteohub,2013-04-30 22:42:00,
2013-04-30 18:47:00,63.7,43.7,30.26,East,81,1.0,4.0,48,0.00,,,0.01,meteohub,2013-04-30 22:47:00,
2013-04-30 18:52:00,63.5,42.3,30.27,East,79,1.0,3.0,46,0.00,,,0.01,meteohub,2013-04-30 22:52:00,
2013-04-30 18:57:00,63.3,42.8,30.26,East,82,1.0,3.0,47,0.00,,,0.01,meteohub,2013-04-30 22:57:00,
2013-04-30 19:02:00,63.1,43.2,30.26,East,80,2.0,6.0,48,0.00,,,0.01,meteohub,2013-04-30 23:02:00,
2013-04-30 19:07:00,63.0,41.4,30.26,SSE,163,3.0,6.0,45,0.00,,,0.01,meteohub,2013-04-30 23:07:00,
2013-04-30 19:12:00,62.8,40.5,30.27,East,91,0.0,6.0,44,0.00,,,0.01,meteohub,2013-04-30 23:12:00,
2013-04-30 19:17:00,62.6,40.5,30.27,East,84,2.0,6.0,44,0.00,,,0.01,meteohub,2013-04-30 23:17:00,
2013-04-30 19:22:00,62.4,40.3,30.27,East,83,1.0,5.0,44,0.00,,,0.01,meteohub,2013-04-30 23:22:00,
2013-04-30 19:27:00,62.2,40.6,30.27,ENE,76,1.0,4.0,45,0.00,,,0.01,meteohub,2013-04-30 23:27:00,
2013-04-30 19:32:00,62.2,40.1,30.27,ENE,67,2.0,5.0,44,0.00,,,0.01,meteohub,2013-04-30 23:32:00,
2013-04-30 19:37:00,62.1,39.9,30.27,ENE,73,2.0,5.0,44,0.00,,,0.01,meteohub,2013-04-30 23:37:00,
2013-04-30 19:42:00,62.1,39.9,30.27,ENE,69,5.0,5.0,44,0.00,,,0.01,meteohub,2013-04-30 23:42:00,
2013-04-30 19:47:00,61.9,39.2,30.27,ESE,111,1.0,5.0,43,0.00,,,0.01,meteohub,2013-04-30 23:47:00,
2013-04-30 19:52:00,61.5,38.8,30.28,East,83,2.0,5.0,43,0.00,,,0.01,meteohub,2013-04-30 23:52:00,
2013-04-30 19:57:00,61.3,39.2,30.27,ENE,67,3.0,5.0,44,0.00,,,0.01,meteohub,2013-04-30 23:57:00,
2013-04-30 20:02:00,61.2,39.0,30.27,ENE,67,3.0,5.0,44,0.00,,,0.01,meteohub,2013-05-01 00:02:00,
2013-04-30 20:07:00,61.0,38.8,30.28,ENE,57,3.0,5.0,44,0.00,,,0.01,meteohub,2013-05-01 00:07:00,
2013-04-30 20:12:00,60.6,37.9,30.27,ENE,63,3.0,5.0,43,0.00,,,0.01,meteohub,2013-05-01 00:12:00,
2013-04-30 20:17:00,60.4,37.2,30.28,NE,51,4.0,6.0,42,0.00,,,0.01,meteohub,2013-05-01 00:17:00,
2013-04-30 20:22:00,60.3,36.5,30.28,ENE,78,0.0,7.0,41,0.00,,,0.01,meteohub,2013-05-01 00:22:00,
2013-04-30 20:27:00,59.9,36.1,30.28,ENE,66,1.0,7.0,41,0.00,,,0.01,meteohub,2013-05-01 00:27:00,
2013-04-30 20:32:00,59.5,36.5,30.28,ENE,59,1.0,7.0,42,0.00,,,0.01,meteohub,2013-05-01 00:32:00,
2013-04-30 20:37:00,59.4,37.4,30.28,ENE,61,1.0,4.0,44,0.00,,,0.01,meteohub,2013-05-01 00:37:00,
2013-04-30 20:42:00,59.0,36.0,30.28,ENE,66,2.0,4.0,42,0.00,,,0.01,meteohub,2013-05-01 00:42:00,
2013-04-30 20:47:00,58.6,36.9,30.28,East,82,1.0,4.0,44,0.00,,,0.01,meteohub,2013-05-01 00:47:00,
2013-04-30 20:52:00,58.5,35.4,30.28,East,88,2.0,4.0,42,0.00,,,0.01,meteohub,2013-05-01 00:52:00,
2013-04-30 20:57:00,58.3,36.0,30.29,ENE,78,1.0,4.0,43,0.00,,,0.01,meteohub,2013-05-01 00:57:00,
2013-04-30 21:02:00,58.1,35.1,30.29,ENE,72,1.0,4.0,42,0.00,,,0.01,meteohub,2013-05-01 01:02:00,
2013-04-30 21:07:00,57.9,34.9,30.29,ENE,58,4.0,4.0,42,0.00,,,0.01,meteohub,2013-05-01 01:07:00,
2013-04-30 21:12:00,57.7,34.9,30.30,ENE,59,1.0,4.0,42,0.00,,,0.01,meteohub,2013-05-01 01:12:00,
2013-04-30 21:17:00,57.6,34.7,30.30,ENE,64,1.0,4.0,42,0.00,,,0.01,meteohub,2013-05-01 01:17:00,
2013-04-30 21:22:00,57.4,35.1,30.30,ENE,72,1.0,4.0,43,0.00,,,0.01,meteohub,2013-05-01 01:22:00,
2013-04-30 21:27:00,57.0,35.2,30.30,ENE,65,2.0,4.0,44,0.00,,,0.01,meteohub,2013-05-01 01:27:00,
2013-04-30 21:32:00,56.8,35.2,30.30,ENE,75,0.0,4.0,44,0.00,,,0.01,meteohub,2013-05-01 01:32:00,
2013-04-30 21:37:00,56.5,34.9,30.30,ENE,67,3.0,3.0,44,0.00,,,0.01,meteohub,2013-05-01 01:37:00,
2013-04-30 21:42:00,56.1,35.6,30.30,NE,56,2.0,3.0,46,0.00,,,0.01,meteohub,2013-05-01 01:42:00,
2013-04-30 21:47:00,55.9,35.4,30.30,ENE,65,0.0,3.0,46,0.00,,,0.01,meteohub,2013-05-01 01:47:00,
2013-04-30 21:52:00,55.6,40.1,30.30,ENE,65,1.0,3.0,56,0.00,,,0.01,meteohub,2013-05-01 01:52:00,
2013-04-30 21:57:00,55.0,37.8,30.30,ENE,65,0.0,3.0,52,0.00,,,0.01,meteohub,2013-05-01 01:57:00,
2013-04-30 22:02:00,54.9,36.5,30.30,ENE,71,2.0,2.0,50,0.00,,,0.01,meteohub,2013-05-01 02:02:00,
2013-04-30 22:07:00,54.3,36.1,30.31,ENE,65,2.0,3.0,50,0.00,,,0.01,meteohub,2013-05-01 02:07:00,
2013-04-30 22:12:00,54.1,37.4,30.30,ENE,64,2.0,3.0,53,0.00,,,0.01,meteohub,2013-05-01 02:12:00,
2013-04-30 22:17:00,53.8,34.5,30.30,ENE,64,3.0,3.0,48,0.00,,,0.01,meteohub,2013-05-01 02:17:00,
2013-04-30 22:22:00,53.6,36.3,30.30,ENE,65,2.0,3.0,52,0.00,,,0.01,meteohub,2013-05-01 02:22:00,
2013-04-30 22:27:00,53.4,37.6,30.30,ENE,64,1.0,3.0,55,0.00,,,0.01,meteohub,2013-05-01 02:27:00,
2013-04-30 22:32:00,53.1,36.9,30.30,ENE,64,1.0,3.0,54,0.00,,,0.01,meteohub,2013-05-01 02:32:00,
2013-04-30 22:37:00,52.9,39.0,30.31,ENE,63,1.0,3.0,59,0.00,,,0.01,meteohub,2013-05-01 02:37:00,
2013-04-30 22:42:00,52.3,38.5,30.31,ENE,63,1.0,2.0,59,0.00,,,0.01,meteohub,2013-05-01 02:42:00,
2013-04-30 22:47:00,52.0,35.4,30.31,ENE,63,0.0,2.0,53,0.00,,,0.01,meteohub,2013-05-01 02:47:00,
2013-04-30 22:52:00,51.6,36.5,30.32,ENE,63,0.0,2.0,56,0.00,,,0.01,meteohub,2013-05-01 02:52:00,
2013-04-30 22:57:00,51.4,35.8,30.32,ENE,67,1.0,1.0,55,0.00,,,0.01,meteohub,2013-05-01 02:57:00,
2013-04-30 23:02:00,51.1,36.0,30.32,ENE,66,1.0,2.0,56,0.00,,,0.01,meteohub,2013-05-01 03:02:00,
2013-04-30 23:07:00,50.5,36.3,30.32,ENE,65,1.0,2.0,58,0.00,,,0.01,meteohub,2013-05-01 03:07:00,
2013-04-30 23:12:00,50.4,38.7,30.32,ENE,67,0.0,2.0,64,0.00,,,0.01,meteohub,2013-05-01 03:12:00,
2013-04-30 23:17:00,50.2,36.9,30.32,ENE,65,0.0,2.0,60,0.00,,,0.01,meteohub,2013-05-01 03:17:00,
2013-04-30 23:22:00,49.8,36.1,30.32,ENE,66,0.0,1.0,59,0.00,,,0.01,meteohub,2013-05-01 03:22:00,
2013-04-30 23:27:00,49.6,35.4,30.32,ENE,67,0.0,1.0,58,0.00,,,0.01,meteohub,2013-05-01 03:27:00,
2013-04-30 23:32:00,49.5,37.4,30.32,ENE,66,0.0,1.0,63,0.00,,,0.01,meteohub,2013-05-01 03:32:00,
2013-04-30 23:37:00,49.3,37.6,30.32,ENE,67,0.0,1.0,64,0.00,,,0.01,meteohub,2013-05-01 03:37:00,
2013-04-30 23:42:00,48.9,36.9,30.33,ENE,67,0.0,1.0,63,0.00,,,0.01,meteohub,2013-05-01 03:42:00,
2013-04-30 23:47:00,48.6,37.8,30.32,ENE,68,0.0,1.0,66,0.00,,,0.01,meteohub,2013-05-01 03:47:00,
2013-04-30 23:52:00,48.0,38.3,30.32,ENE,64,1.0,1.0,69,0.00,,,0.01,meteohub,2013-05-01 03:52:00,
2013-04-30 23:57:00,47.7,40.5,30.32,ENE,65,0.0,2.0,76,0.00,,,0.01,meteohub,2013-05-01 03:57:00,